Current Version              Previous Version:    01  02  03  04  05  06  07  08  09  10  11  12  13  14  15  16  17  18  19  20  21  22  23  24  25  26  27  28  29  30  
   31  32  33  34  35  36  37  38  39  40  41  42  43  44  45  46  47  48  49  50  51  52  53  54  55  56  57  58  59  60  

[Printable]
398
ASUS44 KLUB 241201
RWRTX
WEST TEXAS WEATHER ROUNDUP
NATIONAL WEATHER SERVICE LUBBOCK TX
700 AM CDT THU APR 24 2014

NOTE: "FAIR" INDICATES FEW OR NO CLOUDS BELOW 12,000 FEET WITH NO
SIGNIFICANT WEATHER AND/OR OBSTRUCTIONS TO VISIBILITY.

TXZ004-006>008-010-012-014-016-OKZ002-241300-
TEXAS PANHANDLE/OKLAHOMA PANHANDLE

CITY           SKY/WX    TMP DP  RH WIND       PRES   REMARKS
AMARILLO       PTCLDY    48  35  60 N24G33    29.96R
BORGER         MOCLDY    51  34  52 NW20G39   29.94R
DALHART        MOCLDY    45  39  79 N18G29    29.99R
GUYMON         LGT RAIN  48  38  68 NW20G28   29.95R
$$

TXZ026-029-035-045-048-241300-
SOUTHERN PANHANDLE/SOUTH PLAINS/ROLLING PLAINS

CITY           SKY/WX    TMP DP  RH WIND       PRES   REMARKS
CHILDRESS      CLOUDY    59  38  45 NW22      29.80R
LUBBOCK        PTCLDY    57  33  40 N21G36    29.89R BLWGDUST
$$

TXZ052-054-060>062-072-078-127-140-154-169-241300-
PERMIAN BASIN/CONCHO VALLEY/BIG COUNTRY/EDWARDS PLATEAU

CITY           SKY/WX    TMP DP  RH WIND       PRES   REMARKS
ABILENE        CLEAR     67  60  78 S7        29.78S
BROWNWOOD      CLOUDY    66  59  77 S7        29.80R
JUNCTION       MOCLDY    66  60  81 SW3       29.80R
MIDLAND        CLEAR     59  39  47 N9        29.88R
ODESSA           N/A    N/A N/A N/A MISG      29.89R
SAN ANGELO     CLEAR     69  61  75 NW8       29.82R
WINK           CLEAR     58  27  30 N5        29.89R
$$

TXZ055-058-074-075-080-082-241300-
FAR WEST/SOUTHWEST MOUNTAINS/TRANS PECOS

CITY           SKY/WX    TMP DP  RH WIND       PRES   REMARKS
DRYDEN           N/A     64  57  78 N9        29.85R
EL PASO        PTCLDY    67  10  11 N15G23    29.97R
FORT STOCKTON  PTCLDY    63  26  24 W10       29.92R
GUADALUPE PASS CLEAR     58  14  17 W3        30.04R
MARFA          PTCLDY    55  18  22 W3        30.02R
$$

TXZ014-016-019-021>030-083-241300
TEXAS TECH WEST TEXAS MESONET/TEXAS PANHANDLE/NORTHERN SOUTH PLAINS

CITY           SKY/WX    TMP DP  RH WIND       PRES   REMARKS
ABERNATHY 5ENE   N/A     55  34  45 N25       29.90R
AMARILLO 9NNE    N/A     48  36  62 N21       29.96R
AMARILLO 7SSE    N/A     48  33  57 N20       29.95R
AMHERST 1NE      N/A     51  33  49 N22G31    29.94R
BOOTLEG 11WNW    N/A     45  31  58 N12       30.01R
CANADIAN 6E      N/A     55  34  44 NW17      29.80R
CAPROCK CYN SP   N/A     58  31  35 N15       29.87R
CHILDRESS 2NNE   N/A     59  40  50 NW17      29.79R
CLARENDON 2WSW   N/A     54  30  40 NW21G31   29.87R
CLAUDE 12SW      N/A     49  32  52 NW28      29.91R
DIMMITT 2NE      N/A     47  32  55 N22       29.95R
FLOYDADA 2NNE    N/A     55  30  38 NW18      29.87R
FRIONA 2NE       N/A     48  32  54 N20       29.98R
GOODLETT 3W      N/A     62  41  47 W17       29.75R
HART 3N          N/A     49  33  54 N25       29.93R
HEREFORD 2NW     N/A     47  33  58 N20       29.97R
MCLEAN 1E        N/A     53  33  46 NW21G31   29.83R
MEMPHIS 1NE      N/A     57  37  46 NW21      29.81R
MULESHOE 2SSW    N/A     50  33  52 N21       29.96R
OLTON 6S         N/A     51  32  48 N18       29.92R
PALO DURO SP     N/A     49  32  51 N16       29.94R
PAMPA 2E         N/A     50  32  50 NW26G37   29.88R
PLAINVIEW 1S     N/A     53  32  44 N21       29.90R
SILVERTON 7ESE   N/A     54  31  40 NW25      29.89R
TULIA 2ENE       N/A     51  31  47 NW22      29.91R
TURKEY 2WSW      N/A     59  31  34 NW26G37   29.84R
UMBARGER 3NNE    N/A     47  33  58 N24       29.96R
$$

TXZ033>036-039>041-045>048-241300
TEXAS TECH WEST TEXAS MESONET/SOUTH PLAINS

CITY           SKY/WX    TMP DP  RH WIND       PRES   REMARKS
AIKEN 3WSW       N/A     53  34  48 N21       29.91R
ANDREWS 2NE      N/A     59  24  25 NW13      29.90R
ANTON 6SSW       N/A     55  34  45 N18       29.91R
BROWNFIELD 2S    N/A     53  20  27 W12       29.88R
DENVR CTY 7WNW   N/A     51  17  26 W9        29.91R
GAIL 2ESE        N/A     63  23  21 W9        29.83R
LAMESA 2SE       N/A     61  22  22 NW22      29.85R
LEVELLAND 4S     N/A     55  28  34 N18       29.92R
LUBBOCK 3WNW     N/A     57  32  38 NW20      29.90R
MORTON 1ENE      N/A     51  32  48 N16       29.94R
ODONNELL 1N      N/A     55  20  25 W12       29.86R
PLAINS 3N        N/A     53  15  22 W9        29.91R
RALLS 1SE        N/A     57  31  37 N18       29.87R
REESE CENTER     N/A     55  28  34 NW20      29.90R
SEAGRAVES 1SW    N/A     57  18  22 W15       29.90R
SEMINOLE 2NNE    N/A     57  20  23 W9        29.90R
SLATON 2NE       N/A     58  28  31 NW16      29.87R
SNYDER 3E        N/A     63  31  30 W6        29.82R
SUNDOWN 8SW      N/A     53  16  22 NW16G26   29.91R
TAHOKA 3NNE      N/A     57  19  23 NW16      29.87R
WOLFFORTH 6SSW   N/A     56  22  26 NW17      29.89R
$$

TXZ031-032-036>038-042>044-241300-
TEXAS TECH WEST TEXAS MESONET/ROLLING PLAINS

CITY           SKY/WX    TMP DP  RH WIND       PRES   REMARKS
ASPERMONT 3NE    N/A     67  40  37 W13       29.76R
FLUVANNA 3WNW    N/A     61  21  22 W13       29.82R
GRAHAM 5SSW      N/A     59  19  20 NW18G29   29.84R
GUTHRIE 10WSW    N/A     65  32  29 NW16      29.78R
HASKELL 1NW      N/A     66  54  65 SW12      29.74R
LK A HENRY 1NW   N/A     62  26  25 NW10      29.82R
NORTHFIELD 1S    N/A     59  36  41 NW16      29.82R
ODELL 4ENE       N/A     61  47  60 W12       29.69R
PADUCAH 10SW     N/A     62  37  39 NW20      29.78R
POST 1NE         N/A     61  20  20 NW12      29.83R
RRING SPRGS 3N   N/A     60  33  36 N17       29.83R
SEYMOUR 3NW      N/A     67  58  71 SW15      29.69R
SPUR 1W          N/A     62  21  21 NW10      29.79R
WEINERT 2NNE     N/A     67  53  62 W10       29.74R
WHITE RVR 6NE    N/A     61  26  26 NW22      29.81R
$$

TXZ052-054-060>062-072-078-127-140-154-169-241300-
TEXAS TECH WEST TEXAS MESONET/PERMIAN BASIN/
CONCHO VALLEY/BIG COUNTRY/EDWARDS PLATEAU

CITY           SKY/WX    TMP DP  RH WIND       PRES   REMARKS
COYANOSA 2N      N/A     59  30  32 SW7       29.89R
JUNCTION 1SSW    N/A     65  60  84 S5        29.80S
MERTZON 3NNE     N/A     68  61  79 SW12      29.84R
SAN ANGELO 7NW   N/A     68  60  74 W7        29.82R
STRLNG CT 4WSW   N/A     62  57  83 W3        29.86R
ST LAWRNCE 5SW   N/A     57  54  87 NW3       29.87R
SWEETWATR 11SW   N/A     64  57  79 SW7       29.84R
WALL 1E          N/A     65  58  77 W8        29.82R
$$

TXZ055-058-074-075-080-082-241300-
TEXAS TECH WEST TEXAS MESONET/FAR WEST/SOUTHWEST MOUNTAINS/TRANS PECOS

CITY           SKY/WX    TMP DP  RH WIND       PRES   REMARKS
PRSMN GAP BBNP   N/A     68  23  18 SW1       29.89R
$$